[[{"header":{"parameterUnit":"m.s-1","parameterCategory":1,"la1":30.2992,"la2":30.254,"lo1":-89.0895,"lo2":-89.0443,"dy":0.0025,"dx":0.0025,"nx":19,"ny":19,"refTime":"2026-05-01T21:00:00:Z","depth":0,"parameterNumber":2,"parameterNumberName":"U-component_of_WINDS"},"data":[0,0,0,-1.3508,-1.3514,-1.3768,-1.3769,-1.4112,-1.4115,0,0,0,0,0,0,0,0,0,0,0,-1.3442,-1.3445,-1.3508,-1.3514,-1.3768,-1.3769,-1.4111,-1.4115,0,0,0,0,0,0,0,0,0,0,0,-1.3441,-1.3444,-1.3447,-1.3515,-1.3767,-1.3769,-1.4111,-1.3913,0,0,0,0,0,0,0,0,0,0,-1.3663,-1.3611,-1.3443,-1.3447,-1.3517,-1.3767,-1.3769,-1.3903,-1.3925,-1.4004,0,-1.4075,0,-1.41,-1.4139,-1.414,0,0,0,-1.3508,-1.3593,-1.3652,-1.3448,-1.3519,-1.3767,-1.3652,-1.3915,-1.394,-1.4034,-1.408,-1.4092,-1.4106,-1.4141,-1.4143,-1.4615,-1.4617,0,0,-1.3494,-1.3493,-1.3635,-1.3669,-1.3629,-1.3643,-1.366,-1.393,-1.3981,-1.4081,-1.41,-1.4112,-1.4144,-1.4147,-1.4612,-1.4615,0,0,0,-1.3458,-1.3484,-1.3537,-1.3655,-1.37,-1.3651,-1.3669,-1.3969,-1.3986,-1.4103,-1.4116,-1.4146,-1.415,-1.461,-1.4614,-1.4739,0,0,0,-1.3449,-1.3463,-1.3531,-1.3533,-1.3695,-1.3837,-1.3703,-1.3968,-1.3998,-1.4114,-1.4146,-1.4154,-1.4607,-1.4612,-1.4729,-1.48,0,0,0,-1.3423,-1.3459,-1.3499,-1.3533,-1.3641,-1.3833,-1.3865,-1.3974,-1.4006,-1.4141,-1.4155,-1.4605,-1.4611,-1.4721,-1.4786,-1.4927,0,0,0,-1.3395,-1.3606,-1.3501,-1.3742,-1.3639,-1.3906,-1.3863,-1.4063,-1.4192,-1.4148,-1.4607,-1.4613,-1.4718,-1.4778,-1.4918,-1.5048,-1.5101,0,0,-1.3662,-1.3638,-1.378,-1.3694,-1.3979,-1.3867,-1.4172,-1.4292,-1.4306,-1.4512,-1.4523,-1.4732,-1.4785,-1.4925,-1.5389,-1.5431,0,0,0,-1.3865,-1.3968,-1.4043,-1.4166,-1.4261,-1.435,-1.4422,-1.4467,-1.4641,-1.441,-1.4818,-1.485,-1.4932,-1.4995,-1.5031,-1.5103,-1.4641,-1.464,-1.4639,-1.4247,-1.4251,-1.4487,-1.4523,-1.4642,-1.4714,-1.4812,-1.4885,-1.4854,-1.495,-1.5014,-1.5295,-1.5368,-1.5395,-1.547,-1.5078,-1.5079,-1.5079,-1.508,-1.4643,-1.4791,-1.4744,-1.4957,-1.496,-1.514,-1.5217,-1.519,-1.5359,-1.5247,-1.532,-1.5203,-1.5441,-1.5508,-1.5089,-1.5088,-1.5086,-1.5085,-1.5085,-1.4898,-1.497,-1.5018,-1.5196,-1.5333,-1.536,-1.5525,-1.5521,-1.5519,-1.559,-1.5659,-1.5657,-1.5659,-1.5622,-1.5623,-1.5624,-1.5625,-1.5626,-1.5626,-1.5146,-1.5196,-1.5335,-1.5452,-1.5531,-1.5634,-1.5707,-1.5785,-1.5871,-1.5856,-1.5856,-1.582,-1.5461,-1.5374,-1.5642,-1.5639,-1.5637,-1.5635,-1.5634,-1.5556,-1.5462,-1.5677,-1.5756,-1.5894,-1.6032,-1.6022,-1.6182,-1.6245,-1.6327,-1.6273,-1.6007,-1.5984,-1.5956,-1.5884,-1.6268,-1.6268,-1.6268,-1.6268,-1.5776,-1.5762,-1.5981,-1.6107,-1.623,-1.6243,-1.6489,-1.6547,-1.6593,-1.6633,-1.6575,-1.6478,-1.6449,-1.6444,-1.6405,-1.6339,-1.6829,-1.683,-1.683,-1.6031,-1.6028,-1.6238,-1.6279,-1.6386,-1.6479,-1.6711,-1.686,-1.6891,-1.6853,-1.6666,-1.6642,-1.6485,-1.6432,-1.6396,-1.6336,-1.6214,0,0]},{"header":{"parameterUnit":"m.s-1","parameterCategory":1,"la1":30.2992,"la2":30.254,"lo1":-89.0895,"lo2":-89.0443,"dy":0.0025,"dx":0.0025,"nx":19,"ny":19,"refTime":"2026-05-01T21:00:00:Z","depth":0,"parameterNumber":3,"parameterNumberName":"V-component_of_WINDS"},"data":[0,0,0,-4.8961,-4.8966,-4.9229,-4.923,-4.9584,-4.9588,0,0,0,0,0,0,0,0,0,0,0,-4.8895,-4.8898,-4.896,-4.8967,-4.9229,-4.923,-4.9584,-4.9588,0,0,0,0,0,0,0,0,0,0,0,-4.8894,-4.8898,-4.8901,-4.8968,-4.9229,-4.923,-4.9583,-4.9378,0,0,0,0,0,0,0,0,0,0,-4.912,-4.9072,-4.8897,-4.8901,-4.897,-4.9229,-4.923,-4.9368,-4.9391,-4.9474,0,-4.9552,0,-4.9576,-4.9613,-4.9614,0,0,0,-4.8957,-4.9053,-4.9113,-4.8902,-4.8972,-4.9228,-4.9108,-4.938,-4.9406,-4.9504,-4.9557,-4.9569,-4.9582,-4.9615,-4.9617,-5.0131,-5.0134,0,0,-4.8943,-4.8949,-4.9095,-4.913,-4.9093,-4.91,-4.9116,-4.9396,-4.9453,-4.9558,-4.9577,-4.9587,-4.9617,-4.962,-5.0129,-5.0132,0,0,0,-4.8908,-4.894,-4.8992,-4.9116,-4.9162,-4.9108,-4.9127,-4.9441,-4.9457,-4.9581,-4.9592,-4.962,-4.9624,-5.0126,-5.013,-5.028,0,0,0,-4.8899,-4.8919,-4.8986,-4.8993,-4.9158,-4.9305,-4.9166,-4.9438,-4.9469,-4.959,-4.962,-4.9628,-5.0122,-5.0128,-5.0269,-5.035,0,0,0,-4.8874,-4.8916,-4.8959,-4.8992,-4.9106,-4.93,-4.9333,-4.9444,-4.9476,-4.9614,-4.9629,-5.012,-5.0127,-5.0259,-5.0334,-5.0489,0,0,0,-4.8849,-4.9087,-4.8961,-4.923,-4.9104,-4.9391,-4.9331,-4.9544,-4.968,-4.9622,-5.0123,-5.013,-5.0256,-5.0324,-5.0479,-5.0623,-5.0682,0,0,-4.9153,-4.9124,-4.9281,-4.9176,-4.9488,-4.935,-4.9684,-4.9801,-4.9807,-5.0022,-5.0035,-5.0273,-5.0333,-5.0487,-5.1012,-5.106,0,0,0,-4.938,-4.9493,-4.9574,-4.9705,-4.9801,-4.989,-4.9956,-4.9999,-5.0182,-4.992,-5.0369,-5.0405,-5.0495,-5.0563,-5.0604,-5.0681,-5.0161,-5.016,-5.0159,-4.982,-4.9815,-5.0076,-5.0104,-5.0231,-5.0296,-5.0399,-5.0468,-5.0425,-5.0531,-5.0596,-5.0916,-5.0996,-5.1026,-5.1107,-5.0669,-5.067,-5.0671,-5.0671,-5.0265,-5.0427,-5.0364,-5.0596,-5.0589,-5.0782,-5.0853,-5.0817,-5.0996,-5.0866,-5.0945,-5.0806,-5.1079,-5.1149,-5.0682,-5.068,-5.0679,-5.0678,-5.0677,-5.0556,-5.0632,-5.0681,-5.0869,-5.1014,-5.1032,-5.1207,-5.1194,-5.1182,-5.126,-5.1328,-5.1326,-5.1323,-5.1293,-5.1294,-5.1295,-5.1296,-5.1297,-5.1297,-5.0838,-5.0888,-5.1039,-5.116,-5.1242,-5.1348,-5.1415,-5.1495,-5.158,-5.1556,-5.1557,-5.1505,-5.1106,-5.1007,-5.1315,-5.1312,-5.1309,-5.1308,-5.1307,-5.1297,-5.1191,-5.1423,-5.1505,-5.1646,-5.1792,-5.1771,-5.1935,-5.1999,-5.2086,-5.2016,-5.1722,-5.1691,-5.1659,-5.1578,-5.2015,-5.2015,-5.2015,-5.2015,-5.1544,-5.1526,-5.1761,-5.1893,-5.2021,-5.2026,-5.2288,-5.2341,-5.2379,-5.2418,-5.2352,-5.2242,-5.2209,-5.2198,-5.2154,-5.2078,-5.2633,-5.2633,-5.2634,-5.1826,-5.182,-5.2047,-5.2084,-5.2193,-5.2286,-5.2532,-5.2686,-5.2707,-5.2659,-5.2449,-5.2423,-5.2245,-5.2187,-5.2137,-5.2069,-5.1929,0,0]}]]